Location: Bastelaar
(51.0950°N, 3.8602°E)
Time: 07:40:34
(UTC+00:00)

Cosmos 2058 - Pass Details

Date: 18 November 2025
Orbit: 529 x 540 km, 82.5° (Epoch: 12 December)

Event Time Altitude Azimuth Distance (km) Brightness Sun altitude
Rises 17:26:50 0° 350° (N) 2,708 6.3 -14.5°
Reaches altitude 10° 17:29:00 10° 353° (N) 1,813 5.4 -14.9°
Maximum altitude 17:32:59 74° 79° (ENE) 570 2.7 -15.5°
Drops below altitude 10° 17:36:57 10° 164° (SSE) 1,804 5.4 -16.1°
Sets 17:39:06 0° 167° (SSE) 2,692 6.3 -16.4°
